User: anonymous   Login
Location: Unspecified
(0.0000°N, 0.0000°E)
Time: 06:38:39
(UTC+00:00)
Language:

Picosat 6 - Orbit

View from above orbital plane
View from above orbital plane
View from above satellite
View from above satellite

Ground track
Ground track

The orbit data is extracted from the following two-line orbital elements,

1 26094U 00004M   19080.71803704 +.00000068 +00000-0 +38309-4 0  9994
2 26094 100.2208 259.1882 0034240 171.2334 188.9454 14.42488371003582
Epoch (UTC): 21 March 2019 17:13:58
Eccentricity: 0.0034240
inclination: 100.2208°
perigee height: 726 km
apogee height: 775 km
right ascension of ascending node: 259.1882°
argument of perigee: 171.2334°
revolutions per day: 14.42488371
mean anomaly at epoch: 188.9454°
orbit number at epoch: 358

The dashed part of the orbit path shows where the satellite is in the earth's shadow,  

DLR